OH2HCY Weather Reports


time (UTC)temp
C
wind
direction
speed
KPH
gust
KPH
rain 1hr
cm
rain 24hr
cm
rain mn
cm
humidity
%
barometer
mb
20260508133115 14 348 6.4 16.1 0.00 0.00 0.00 21 1020.8
20260508131234 14 330 6.4 20.9 0.00 0.00 0.00 22 1021.0
20260508124550 13 358 8.0 17.7 0.00 0.00 0.00 23 1021.0
20260508123650 14 128 3.2 14.5 0.00 0.00 0.00 24 1021.2
20260508122800 13 351 11.3 20.9 0.00 0.00 0.00 24 1021.3
20260508120107 13 329 6.4 17.7 0.00 0.00 0.00 25 1021.5
20260508115215 13 327 11.3 19.3 0.00 0.00 0.00 25 1021.8
20260508113411 13 352 11.3 32.2 0.00 0.00 0.00 26 1021.9
20260508112440 12 340 12.9 29.0 0.00 0.00 0.00 26 1021.8
20260508111530 13 322 4.8 19.3 0.00 0.00 0.00 25 1021.7
20260508110630 13 355 9.7 24.1 0.00 0.00 0.00 26 1022.0
20260508105800 12 344 16.1 32.2 0.00 0.00 0.00 26 1022.2
20260508104855 12 345 9.7 32.2 0.00 0.00 0.00 26 1021.9
20260508103947 12 353 9.7 24.1 0.00 0.00 0.00 27 1022.2
20260508102130 12 333 14.5 29.0 0.00 0.00 0.00 28 1022.2
20260508101238 12 328 9.7 22.5 0.00 0.00 0.00 29 1022.2
20260508100405 12 330 11.3 27.4 0.00 0.00 0.00 30 1022.3
20260508095450 12 325 8.0 20.9 0.00 0.00 0.00 29 1022.2
20260508094550 11 360 11.3 29.0 0.00 0.00 0.00 29 1022.4
20260508092820 11 352 11.3 24.1 0.00 0.00 0.00 30 1022.4
20260508091935 11 349 11.3 24.1 0.00 0.00 0.00 31 1022.5
20260508091110 11 346 14.5 27.4 0.00 0.00 0.00 31 1022.7
20260508090235 11 360 16.1 29.0 0.00 0.00 0.00 31 1022.6
20260508083534 10 326 8.0 27.4 0.00 0.00 0.00 34 1022.8
20260508082659 10 334 9.7 19.3 0.00 0.00 0.00 35 1022.9
20260508081745 10 340 9.7 20.9 0.00 0.00 0.00 35 1023.0
20260508075855 10 350 9.7 20.9 0.00 0.00 0.00 36 1023.0
20260508074950 10 347 9.7 20.9 0.00 0.00 0.00 36 1023.1
20260508074015 10 346 16.1 30.6 0.00 0.00 0.00 37 1023.2
20260508073120 10 342 14.5 29.0 0.00 0.00 0.00 36 1023.0
20260508072214 9 342 16.1 30.6 0.00 0.00 0.00 37 1023.1
20260508071320 9 341 14.5 30.6 0.00 0.00 0.00 38 1023.1
20260508065515 9 351 12.9 22.5 0.00 0.00 0.00 39 1023.0
20260508064640 8 347 14.5 25.7 0.00 0.00 0.00 40 1023.1
20260508063754 8 339 12.9 24.1 0.00 0.00 0.00 40 1023.1
20260508062918 8 340 14.5 27.4 0.00 0.00 0.00 41 1023.1
20260508062042 8 335 14.5 29.0 0.00 0.00 0.00 43 1023.1
20260508061135 8 334 12.9 22.5 0.00 0.00 0.00 45 1023.1
20260508060320 7 337 14.5 24.1 0.00 0.00 0.00 45 1023.1
20260508055425 7 345 11.3 24.1 0.00 0.00 0.00 46 1023.1
20260508054535 7 349 11.3 22.5 0.00 0.00 0.00 47 1023.1
20260508053635 7 338 11.3 22.5 0.00 0.00 0.00 48 1023.2
20260508052750 7 343 9.7 16.1 0.00 0.00 0.00 50 1023.1
20260508051845 6 348 11.3 22.5 0.00 0.00 0.00 51 1023.1
20260508051005 6 344 9.7 22.5 0.00 0.00 0.00 52 1023.1
20260508050125 6 343 11.3 20.9 0.00 0.00 0.00 53 1023.1
20260508045230 6 341 9.7 19.3 0.00 0.00 0.00 53 1023.1
20260508044322 5 342 9.7 19.3 0.00 0.00 0.00 54 1023.1
20260508043405 5 342 8.0 19.3 0.00 0.00 0.00 55 1023.3
20260508042524 5 343 8.0 17.7 0.00 0.00 0.00 55 1023.3
20260508041605 5 345 9.7 16.1 0.00 0.00 0.00 56 1023.3
20260508040705 4 344 9.7 14.5 0.00 0.00 0.00 56 1023.2
20260508035740 4 344 9.7 16.1 0.00 0.00 0.00 57 1023.2
20260508034820 3 344 9.7 16.1 0.00 0.00 0.00 57 1023.2
20260508033900 3 349 9.7 16.1 0.00 0.00 0.00 57 1023.1
20260508033000 3 348 9.7 17.7 0.00 0.00 0.00 58 1023.1
20260508032105 3 348 9.7 14.5 0.00 0.00 0.00 58 1023.0
20260508031205 3 349 8.0 12.9 0.00 0.00 0.00 58 1022.9
20260508030304 3 348 8.0 12.9 0.00 0.00 0.00 58 1022.9
20260508025330 3 347 8.0 12.9 0.00 0.00 0.00 58 1022.8
20260508024504 2 347 8.0 12.9 0.00 0.00 0.00 58 1022.7
20260508023545 2 349 8.0 12.9 0.00 0.00 0.00 58 1022.6
20260508022650 2 349 8.0 12.9 0.00 0.00 0.00 58 1022.4
20260508021837 3 347 9.7 14.5 0.00 0.00 0.00 58 1022.3
20260508021015 3 345 8.0 12.9 0.00 0.00 0.00 58 1022.2
20260508020107 3 348 8.0 12.9 0.00 0.00 0.00 57 1022.1
20260508015145 3 344 8.0 11.3 0.00 0.00 0.00 57 1022.0
20260508014305 3 345 8.0 11.3 0.00 0.00 0.00 56 1021.9
20260508013400 3 341 8.0 12.9 0.00 0.00 0.00 55 1021.7
20260508012545 3 342 8.0 12.9 0.00 0.00 0.00 55 1021.6
20260508011710 3 343 8.0 12.9 0.00 0.00 0.00 55 1021.5
20260508010825 3 345 8.0 12.9 0.00 0.00 0.00 54 1021.4
20260508005915 4 349 9.7 14.5 0.00 0.00 0.00 53 1021.1
20260508005008 4 348 9.7 16.1 0.00 0.00 0.00 53 1021.1
20260508004105 4 349 9.7 16.1 0.00 0.00 0.00 53 1020.9
20260508003215 4 352 9.7 17.7 0.00 0.00 0.00 52 1020.7
20260508002335 5 351 9.7 19.3 0.00 0.00 0.00 52 1020.6
20260508001444 5 352 8.0 14.5 0.00 0.00 0.00 52 1020.5
20260508000520 5 353 8.0 16.1 0.00 0.00 0.00 52 1020.3
20260507235605 5 354 8.0 16.1 0.00 0.00 0.00 51 1020.2
20260507234735 5 355 6.4 12.9 0.00 0.00 0.00 51 1020.0
20260507233840 5 354 6.4 11.3 0.00 0.00 0.00 50 1019.9
20260507232915 5 350 6.4 9.7 0.00 0.00 0.00 50 1019.7
20260507232006 5 346 6.4 12.9 0.00 0.00 0.00 49 1019.6
20260507231055 5 348 4.8 9.7 0.00 0.00 0.00 47 1019.3
20260507230225 5 343 6.4 11.3 0.00 0.00 0.00 47 1019.1
20260507225355 6 348 6.4 12.9 0.00 0.00 0.00 46 1018.9
20260507224435 6 341 6.4 12.9 0.00 0.00 0.00 46 1018.8
20260507223508 6 338 4.8 9.7 0.00 0.00 0.00 45 1018.7
20260507222555 6 330 4.8 9.7 0.00 0.00 0.00 45 1018.6
20260507221645 6 339 4.8 11.3 0.00 0.00 0.00 44 1018.5
20260507220729 6 337 6.4 11.3 0.00 0.00 0.00 43 1018.3
20260507215845 6 341 6.4 12.9 0.00 0.00 0.00 43 1018.2
20260507214940 6 338 8.0 12.9 0.00 0.00 0.00 42 1018.0
20260507214045 6 334 6.4 14.5 0.00 0.00 0.00 42 1017.9
20260507213150 6 330 6.4 14.5 0.00 0.00 0.00 41 1017.7
20260507212255 7 331 6.4 12.9 0.00 0.00 0.00 41 1017.6
20260507211405 7 331 4.8 9.7 0.00 0.00 0.00 41 1017.4
20260507210500 7 320 3.2 8.0 0.00 0.00 0.00 41 1017.2
20260507205600 7 336 6.4 9.7 0.00 0.00 0.00 40 1017.0
20260507204710 7 342 8.0 11.3 0.00 0.00 0.00 40 1016.8
20260507203815 7 345 8.0 12.9 0.00 0.00 0.00 40 1016.7
20260507202940 7 342 8.0 12.9 0.00 0.00 0.00 39 1016.6
20260507202049 7 342 8.0 12.9 0.00 0.00 0.00 39 1016.6
20260507201159 7 324 4.8 11.3 0.00 0.00 0.00 39 1016.6
20260507200255 7 294 1.6 8.0 0.00 0.00 0.00 39 1016.5
20260507195350 7 301 1.6 6.4 0.00 0.00 0.00 39 1016.2
20260507194455 7 288 3.2 6.4 0.00 0.00 0.00 39 1016.1
20260507193626 7 279 3.2 6.4 0.00 0.00 0.00 38 1015.9
20260507192740 7 292 3.2 6.4 0.00 0.00 0.00 40 1015.8
20260507191820 7 277 3.2 8.0 0.00 0.00 0.00 39 1015.5
20260507190940 7 271 3.2 8.0 0.00 0.00 0.00 38 1015.4
20260507190035 8 252 3.2 6.4 0.00 0.00 0.00 38 1015.2
20260507185125 8 252 3.2 6.4 0.00 0.00 0.00 37 1015.0
20260507184240 8 244 3.2 4.8 0.00 0.00 0.00 36 1014.8
20260507183325 8 239 3.2 4.8 0.00 0.00 0.00 35 1014.7
20260507182450 9 234 3.2 6.4 0.00 0.00 0.00 34 1014.5
20260507181519 9 225 3.2 8.0 0.00 0.00 0.00 33 1014.4
20260507180649 10 215 4.8 9.7 0.00 0.00 0.00 33 1014.1
20260507175750 10 217 4.8 12.9 0.00 0.00 0.00 33 1014.1
20260507174840 10 206 6.4 12.9 0.00 0.00 0.00 32 1014.0
20260507173920 10 206 6.4 12.9 0.00 0.00 0.00 32 1013.9
20260507173000 10 212 6.4 14.5 0.00 0.00 0.00 31 1013.6
20260507172039 10 222 8.0 17.7 0.00 0.00 0.00 29 1013.3
20260507171125 11 189 4.8 12.9 0.00 0.00 0.00 30 1013.1
20260507170220 11 188 4.8 12.9 0.00 0.00 0.00 30 1013.2
20260507165355 10 184 4.8 12.9 0.00 0.00 0.00 30 1013.1
20260507164515 11 193 6.4 17.7 0.00 0.00 0.00 30 1013.1
20260507163630 10 198 11.3 20.9 0.00 0.00 0.00 29 1013.0
20260507162725 11 207 8.0 16.1 0.00 0.00 0.00 29 1012.8
20260507161745 11 203 8.0 17.7 0.00 0.00 0.00 29 1012.5
20260507160830 11 182 4.8 12.9 0.00 0.00 0.00 28 1012.4
20260507155910 11 182 8.0 17.7 0.00 0.00 0.00 29 1012.5
20260507154953 11 194 8.0 20.9 0.00 0.00 0.00 29 1012.3
20260507154030 11 193 8.0 17.7 0.00 0.00 0.00 30 1012.2
20260507153114 12 179 6.4 17.7 0.00 0.00 0.00 28 1012.0
20260507152210 11 181 8.0 17.7 0.00 0.00 0.00 25 1012.0
20260507151229 12 161 6.4 17.7 0.00 0.00 0.00 26 1012.0
20260507150355 12 183 8.0 17.7 0.00 0.00 0.00 25 1011.9